KBMT Airport (Beaumont Muni) Information

FAA: BMT - ICAO: KBMT

KBMT Airport Location

State Texas
County Jefferson
City Beaumont
KBMT Airport is 6 miles west of Beaumont, TX.
Latitude 30-04-12.7358N
Longitude 094-12-54.3482W
Elevation 31ft

KBMT Airport METARs

METAR KBMT 251655Z AUTO 30006KT 10SM BKN018 29/23 A2997 RMK AO2 T02940233
Altimeter 29.97"
Temperature 29.4°C (84.9°F)
Wind 300° at 6KT
Clouds broken at 1,800ft
Visibility 10.0mi
Time observed: 2021-10-25T16:55:00Z

KBMT Airport Details

Status Operational
Activation October 1937
Ownership Public
Usage Public
Chart HOUSTON
ATC on-site No
Beacon schedule sunset-sunrise
Beacon color clear green

KBMT Airport Contacts

Owner CITY OF BEAUMONT
Owner address PO BOX 3827, BEAUMONT, TX 77704
Owner phone 409-880-3725
Manager TERRY & DEBBIE MOORE
Manager address 1214 WYNDHAM HILL LANE, SOUTH LAKE, TX 76092
Manager phone 817-424-0243

KBMT Airport (Beaumont Muni) Radio Frequencies

KBMT (Airport) Radio Frequencies

UNICOM 123
Common traffic advisory frequency (CTAF) 123